183  
ASUS45 KSLC 260510  
RWRUT  
 
UTAH REGIONAL WEATHER ROUNDUP  
NATIONAL WEATHER SERVICE SALT LAKE CITY UT  
1100 PM MDT SAT MAR 25 2017  
 
UTZ001>011-023>025-260600-  
 
NORTHERN UTAH  
 
CITY SKY/WX TMP DP RH WIND PRES REMARKS
 
BRIGHAM CITY N/A 42 38 85 SE3 30.05R  
HILL AFB CLEAR 38 37 96 E5 30.03S WCI 34  
LOGAN CLOUDY 42 36 79 CALM 30.03S  
OGDEN PTCLDY 38 37 97 SE6 30.03S WCI 33  
SALT LAKE CITY PTCLDY 41 38 89 SW3 30.03S  
WENDOVER CLEAR 44 31 60 NE5 30.02F  
HEBER CITY CLOUDY 39 34 81 CALM 30.00R  
 

 
 
UTZ011>015-024>027-260600-  
 
CENTRAL/NORTHEAST UTAH  
 
CITY SKY/WX TMP DP RH WIND PRES REMARKS
 
PROVO AIRPORT CLOUDY 42 38 85 S8 30.04R  
MOAB/CANYONLAN MOCLDY 45 42 89 NW7 29.86F  
DELTA CLOUDY 37 37 100 CALM 30.04S  
PRICE CLEAR 40 31 70 N9 29.93S WCI 34  
ROOSEVELT CLOUDY 45 34 65 W7 29.92S  
VERNAL CLOUDY 45 40 82 CALM 29.91F  
 

 
 
UTZ013>016-019>022-027-260600-  
 
SOUTHERN UTAH  
 
CITY SKY/WX TMP DP RH WIND PRES REMARKS
 
BRYCE CANYON PTCLDY 32 28 85 NW22G28 30.00S WCI 19  
CEDAR CITY CLOUDY 37 35 92 NE3 30.03F  
MILFORD MOCLDY 39 38 96 NW6 30.05R WCI 35  
ST GEORGE CLOUDY 47 40 76 S3 30.01R  
HANKSVILLE CLOUDY 50 36 57 W6 29.92R  
BLANDING CLOUDY 41 36 82 CALM 30.01F  
 

 
 
REGIONAL REPORTS COLORADO/ARIZONA  
 
CITY SKY/WX TMP DP RH WIND PRES REMARKS
 
CRAIG, CO CLOUDY 43 34 70 SW7 29.92S  
GRAND JUNCTION MOCLDY 45 39 79 CALM 29.87S  
RIFLE, CO PTCLDY 45 36 70 E10 29.89F  
MONTROSE, CO CLOUDY 45 38 76 S6 29.93S  
CORTEZ, CO CLOUDY 40 37 89 E8 29.96F WCI 34  
COLORADO CITY N/A 41 37 87 W8 30.04S  
PAGE, AZ CLOUDY 52 39 61 W10G16 29.93S  
GRAND CANYON CLEAR 38 29 70 W8 30.02S WCI 32  
KINGMAN, AZ MOCLDY 50 28 42 E6 30.00R  
FLAGSTAFF, AZ PTCLDY 39 30 70 W7 30.03R WCI 34  
 

 
 
REGIONAL REPORTS NEVADA/IDAHO/WYOMING  
 
CITY SKY/WX TMP DP RH WIND PRES REMARKS
 
LAS VEGAS, NV PTCLDY 63 35 35 CALM 29.95S  
ELY, NY PTCLDY 29 28 96 S8 30.05F WCI 21  
ELKO, NV PTCLDY 36 30 79 S6 30.03R WCI 31  
POCATELLO, ID CLEAR 38 27 64 S9 30.00F WCI 31  
BURLEY, ID CLEAR 38 29 70 SW10 30.00S WCI 31  
FORT BRIDGER, CLOUDY 35 33 94 W12 30.02S WCI 26  
EVANSTON, WY CLOUDY 32 30 92 NW7 30.01S WCI 26  
ROCK SPRINGS, CLOUDY 37 34 89 SW13 29.93F WCI 29  
KEMMERER, WY N/A 32 28 86 W5 30.00R WCI 27  
 

 
 
 
CLICK HERE TO GO TO PREVIOUS BULLETINS.

The Nexlab UT Page Main Text Page